Timestamp,Temp,Chill,HIndex,Humid,Dewpt,Wind,HiWind,WindDir,Rain,RainRate,Barom,Solar,ET,UV,InsideTemp,InsideHumid
2016-10-23 00:00:00,45.9,45.9,45.9,90,43.1347805111836,3,6,292.5,0,0,29.771,0,0,0,54.8,67
2016-10-23 00:05:00,46,46,46,90,43.2335323791467,3,6,315,0,0,29.771,0,0,0,54.9,67
2016-10-23 00:10:00,46,46,46,90,43.2335323791467,2,8,292.5,0,0,29.772,0,0,0,54.9,67
2016-10-23 00:15:00,46,46,46,90,43.2335323791467,3,8,45,0,0,29.771,0,0,0,55.1,66
2016-10-23 00:20:00,46.1,46.1,46.1,90,43.3322839672562,1,6,45,0,0,29.771,0,0,0,55.1,67
2016-10-23 00:25:00,46.1,46.1,46.1,90,43.3322839672562,1,6,45,0,0,29.772,0,0,0,55.1,67
2016-10-23 00:30:00,46.1,46.1,46.1,90,43.3322839672562,3,8,22.5,0,0,29.77,0,0,0,55.1,67
2016-10-23 00:35:00,46.2,46.2,46.2,90,43.4310352755133,3,8,45,0,0,29.771,0,0,0,55.1,67
2016-10-23 00:40:00,46.2,46.2,46.2,90,43.4310352755133,2,6,45,0,0,29.769,0,0,0,54.9,67
2016-10-23 00:45:00,46.2,44.4806353828487,46.2,90,43.4310352755133,4,8,22.5,0,0,29.768,0,0,0,55.1,67
2016-10-23 00:50:00,46.3,44.5961515138142,46.3,90,43.5297863039192,4,11,45,0,0,29.772,0,0,0,55.2,67
2016-10-23 00:55:00,46.3,46.3,46.3,90,43.5297863039192,3,10,0,0,0,29.768,0,0,0,55.4,67
2016-10-23 01:00:00,46.4,44.7116676447798,46.4,90,43.628537052475,4,10,45,0,0,29.774,0,0,0,55.2,67
2016-10-23 01:05:00,46.4,46.4,46.4,90,43.628537052475,2,8,45,0,0,29.773,0,0,0,55.4,67
2016-10-23 01:10:00,46.4,46.4,46.4,90,43.628537052475,2,8,45,0,0,29.776,0,0,0,55.2,67
2016-10-23 01:15:00,46.5,46.5,46.5,90,43.727287521182,3,9,22.5,0,0,29.774,0,0,0,55.4,67
2016-10-23 01:20:00,46.5,46.5,46.5,90,43.727287521182,3,7,45,0,0,29.767,0,0,0,55.4,67
2016-10-23 01:25:00,46.6,46.6,46.6,90,43.8260377100413,2,8,0,0,0,29.763,0,0,0,55.4,67
2016-10-23 01:30:00,46.6,46.6,46.6,90,43.8260377100413,1,5,22.5,0,0,29.766,0,0,0,55.4,67
2016-10-23 01:35:00,46.6,46.6,46.6,90,43.8260377100413,2,8,22.5,0,0,29.764,0,0,0,55.4,67
2016-10-23 01:40:00,46.6,46.6,46.6,90,43.8260377100413,3,8,45,0,0,29.764,0,0,0,55.2,67
2016-10-23 01:45:00,46.6,46.6,46.6,90,43.8260377100413,3,9,45,0,0,29.767,0,0,0,55.2,67
2016-10-23 01:50:00,46.6,46.6,46.6,90,43.8260377100413,3,10,45,0,0,29.763,0,0,0,55.2,68
2016-10-23 01:55:00,46.6,46.6,46.6,90,43.8260377100413,3,7,337.5,0,0,29.76,0,0,0,55.4,67
2016-10-23 02:00:00,46.6,46.6,46.6,90,43.8260377100413,3,9,45,0,0,29.76,0,0,0,55.4,67
2016-10-23 02:05:00,46.7,44.341948927198,46.7,90,43.9247876190541,5,10,22.5,0,0,29.761,0,0,0,55.5,67
2016-10-23 02:10:00,46.7,44.341948927198,46.7,90,43.9247876190541,5,12,22.5,0,0,29.758,0,0,0,55.4,67
2016-10-23 02:15:00,46.8,45.1737321686419,46.8,90,44.0235372482216,4,11,45,0,0,29.757,0,0,0,55.4,68
2016-10-23 02:20:00,46.9,43.4534108840317,46.9,90,44.1222865975451,7,13,45,0,0,29.758,0,0,0,55.4,67
2016-10-23 02:25:00,46.9,43.975618192898,46.9,90,44.1222865975451,6,15,45,0,0,29.757,0,0,0,55.4,67
2016-10-23 02:30:00,46.9,44.5768606904481,46.9,90,44.1222865975451,5,13,45,0,0,29.757,0,0,0,55.4,67
2016-10-23 02:35:00,46.9,46.9,46.9,90,44.1222865975451,2,7,0,0,0,29.756,0,0,0,55.2,67
2016-10-23 02:40:00,46.9,44.5768606904481,46.9,90,44.1222865975451,5,10,45,0,0,29.756,0,0,0,55.4,67
2016-10-23 02:45:00,46.8,44.4594048088231,46.8,90,44.0235372482216,5,9,45,0,0,29.755,0,0,0,55.4,66
2016-10-23 02:50:00,46.8,43.8565251961461,46.8,90,44.0235372482216,6,12,45,0,0,29.752,0,0,0,55.5,66
2016-10-23 02:55:00,46.9,44.5768606904481,46.9,90,44.1222865975451,5,11,45,0,0,29.753,0,0,0,55.5,66
2016-10-23 03:00:00,46.9,45.2892482996075,46.9,89,43.8297575481666,4,9,67.5,0,0,29.754,0,0,0,55.7,66
2016-10-23 03:05:00,46.9,46.9,46.9,89,43.8297575481666,3,11,22.5,0,0,29.752,0,0,0,55.7,66
2016-10-23 03:10:00,47,45.404764430573,47,89,43.9283753368811,4,11,22.5,0,0,29.753,0,0,0,55.5,66
2016-10-23 03:15:00,47,45.404764430573,47,89,43.9283753368811,4,13,67.5,0,0,29.752,0,0,0,55.5,66
2016-10-23 03:20:00,47,47,47,89,43.9283753368811,2,7,45,0,0,29.755,0,0,0,55.5,66
2016-10-23 03:25:00,47,47,47,89,43.9283753368811,2,6,45,0,0,29.755,0,0,0,55.4,66
2016-10-23 03:30:00,47,47,47,89,43.9283753368811,3,8,45,0,0,29.754,0,0,0,55.5,66
2016-10-23 03:35:00,47,47,47,89,43.9283753368811,3,8,22.5,0,0,29.752,0,0,0,55.7,66
2016-10-23 03:40:00,47,45.404764430573,47,89,43.9283753368811,4,8,0,0,0,29.753,0,0,0,55.7,66
2016-10-23 03:45:00,47,47,47,89,43.9283753368811,2,8,45,0,0,29.755,0,0,0,55.7,66
2016-10-23 03:50:00,47,44.6943165720731,47,89,43.9283753368811,5,15,22.5,0,0,29.754,0,0,0,55.7,67
2016-10-23 03:55:00,47,47,47,89,43.9283753368811,3,7,90,0,0,29.755,0,0,0,55.8,67
2016-10-23 04:00:00,47,47,47,89,43.9283753368811,2,8,45,0,0,29.755,0,0,0,55.8,67
2016-10-23 04:05:00,47,47,47,89,43.9283753368811,3,10,22.5,0,0,29.754,0,0,0,55.7,67
2016-10-23 04:10:00,47,47,47,89,43.9283753368811,3,9,45,0,0,29.751,0,0,0,55.5,67
2016-10-23 04:15:00,46.9,46.9,46.9,89,43.8297575481666,3,7,45,0,0,29.754,0,0,0,55.4,67
2016-10-23 04:20:00,46.8,45.1737321686419,46.8,89,43.7311394505493,4,8,67.5,0,0,29.752,0,0,0,55.4,67
2016-10-23 04:25:00,46.8,46.8,46.8,89,43.7311394505493,3,8,45,0,0,29.754,0,0,0,55.5,67
2016-10-23 04:30:00,46.7,44.341948927198,46.7,89,43.6325210440277,5,11,45,0,0,29.752,0,0,0,55.5,66
2016-10-23 04:35:00,46.7,46.7,46.7,89,43.6325210440277,3,10,45,0,0,29.755,0,0,0,55.4,66
2016-10-23 04:40:00,46.6,44.9426999067108,46.6,89,43.5339023286004,4,10,45,0,0,29.761,0,0,0,55.2,66
2016-10-23 04:45:00,46.6,46.6,46.6,89,43.5339023286004,3,8,0,0,0,29.757,0,0,0,55.4,66
2016-10-23 04:50:00,46.5,46.5,46.5,89,43.435283304266,3,9,45,0,0,29.756,0,0,0,55.4,65
2016-10-23 04:55:00,46.4,44.7116676447798,46.4,89,43.336663971023,4,9,45,0,0,29.755,0,0,0,55.4,65
2016-10-23 05:00:00,46.4,44.7116676447798,46.4,89,43.336663971023,4,9,45,0,0,29.758,0,0,0,55.4,65
2016-10-23 05:05:00,46.3,44.5961515138142,46.3,89,43.2380443288699,4,9,22.5,0,0,29.759,0,0,0,55.5,64
2016-10-23 05:10:00,46.3,46.3,46.3,89,43.2380443288699,2,7,22.5,0,0,29.76,0,0,0,55.2,65
2016-10-23 05:15:00,46.3,44.5961515138142,46.3,89,43.2380443288699,4,13,337.5,0,0,29.764,0,0,0,55.1,64
2016-10-23 05:20:00,46.3,43.8721254006979,46.3,88,42.9433995077199,5,10,45,0,0,29.766,0,0,0,55.1,64
2016-10-23 05:25:00,46.3,44.5961515138142,46.3,88,42.9433995077199,4,8,45,0,0,29.764,0,0,0,54.8,65
2016-10-23 05:30:00,46.3,46.3,46.3,88,42.9433995077199,3,8,22.5,0,0,29.762,0,0,0,54.6,65
2016-10-23 05:35:00,46.3,44.5961515138142,46.3,88,42.9433995077199,4,9,45,0,0,29.762,0,0,0,54.5,65
2016-10-23 05:40:00,46.3,46.3,46.3,88,42.9433995077199,2,8,67.5,0,0,29.763,0,0,0,54.5,66
2016-10-23 05:45:00,46.3,44.5961515138142,46.3,88,42.9433995077199,4,9,45,0,0,29.761,0,0,0,54.5,65
2016-10-23 05:50:00,46.3,44.5961515138142,46.3,88,42.9433995077199,4,10,22.5,0,0,29.761,0,0,0,54.5,65
2016-10-23 05:55:00,46.2,46.2,46.2,88,42.8449118498878,3,8,337.5,0,0,29.762,0,0,0,54.5,65
2016-10-23 06:00:00,46.2,43.7546695190729,46.2,88,42.8449118498878,5,10,45,0,0,29.766,0,0,0,54.3,65
2016-10-23 06:05:00,46.2,43.7546695190729,46.2,88,42.8449118498878,5,9,337.5,0,0,29.764,0,0,0,54.5,65
2016-10-23 06:10:00,46.1,44.3651192518831,46.1,87,42.4490805888759,4,10,0,0,0,29.765,0,0,0,54.3,65
2016-10-23 06:15:00,46.1,43.6372136374479,46.1,87,42.4490805888759,5,10,22.5,0,0,29.765,0,0,0,54.2,65
2016-10-23 06:20:00,46,43.5197577558228,46,87,42.3507257302957,5,10,22.5,0,0,29.765,0,0,0,54.3,65
2016-10-23 06:25:00,46,46,46,87,42.3507257302957,3,9,45,0,0,29.766,0,0,0,54.3,65
2016-10-23 06:30:00,45.9,45.9,45.9,87,42.2523705040407,3,9,22.5,0,0,29.765,0,0,0,54.3,64
2016-10-23 06:35:00,45.9,43.4023018741978,45.9,87,42.2523705040407,5,14,45,0,0,29.764,0,0,0,54.2,64
2016-10-23 06:40:00,45.8,44.0185708589865,45.8,87,42.154014910109,4,9,45,0,0,29.764,0,0,0,54.2,64
2016-10-23 06:45:00,45.8,44.0185708589865,45.8,87,42.154014910109,4,9,22.5,0,0,29.766,0,0,0,54,64
2016-10-23 06:50:00,45.7,43.903054728021,45.7,86,41.7558267975237,4,10,22.5,0,0,29.765,0,0,0,54,64
2016-10-23 06:55:00,45.6,43.0499342293227,45.6,86,41.6576050922686,5,13,0,0,0,29.767,4,0,0,53.9,64
2016-10-23 07:00:00,45.5,42.9324783476977,45.5,86,41.5593829896246,5,9,22.5,0,0,29.764,8,0,0,53.7,64
2016-10-23 07:05:00,45.3,43.4409902041588,45.3,86,41.3629375921601,4,11,22.5,0,0,29.766,10,0,0,53.6,64
2016-10-23 07:10:00,45.2,43.3254740731932,45.2,86,41.2647142973348,4,10,22.5,0,0,29.765,12,0,0,53.4,64
2016-10-23 07:15:00,45,43.0944418112621,45,86,41.0682665154861,4,9,22.5,0,0,29.768,13,0,0,53.3,64
2016-10-23 07:20:00,45,43.0944418112621,45,86,41.0682665154861,4,8,45,0,0,29.768,15,0,0,53.1,64
2016-10-23 07:25:00,44.9,44.9,44.9,86,40.9700420284579,3,8,45,0,0,29.768,17,0,0,53.3,64
2016-10-23 07:30:00,44.9,42.9789256802966,44.9,86,40.9700420284579,4,10,22.5,0,0,29.77,28,0,0,53.1,64
2016-10-23 07:35:00,44.8,44.8,44.8,86,40.8718171440239,3,10,22.5,0,0,29.768,50,0,0,53.3,64
2016-10-23 07:40:00,45,45,45,86,41.0682665154861,3,9,45,0,0,29.768,63,0,0,53.4,64
2016-10-23 07:45:00,45,43.0944418112621,45,86,41.0682665154861,4,8,67.5,0,0,29.769,57,0,0,53.4,64
2016-10-23 07:50:00,45.2,45.2,45.2,86,41.2647142973348,3,10,22.5,0,0,29.77,54,0,0,53.6,63
2016-10-23 07:55:00,45.4,43.5565063351243,45.4,86,41.4611604895892,4,10,337.5,0,0,29.774,63,0,0,53.7,63
2016-10-23 08:00:00,45.5,45.5,45.5,86,41.5593829896246,3,7,45,0,0,29.776,73,0.001,0,53.9,63
2016-10-23 08:05:00,45.7,43.903054728021,45.7,86,41.7558267975237,4,10,45,0,0,29.771,84,0,0,53.7,63
2016-10-23 08:10:00,45.9,45.9,45.9,85,41.6490755721349,3,9,22.5,0,0,29.775,95,0,0,53.7,63
2016-10-23 08:15:00,46,44.2496031209176,46,85,41.7471600779031,4,10,22.5,0,0,29.776,106,0,0,53.9,62
2016-10-23 08:20:00,46.1,43.6372136374479,46.1,84,41.538614971291,5,11,22.5,0,0,29.772,118,0,0,53.9,62
2016-10-23 08:25:00,46.3,44.5961515138142,46.3,84,41.7345070363487,4,14,45,0,0,29.77,129,0,0,54,62
2016-10-23 08:30:00,46.6,46.6,46.6,83,41.7177832623323,3,8,22.5,0,0,29.775,139,0,0,54.2,62
2016-10-23 08:35:00,46.7,43.7374321993942,46.7,83,41.8155883427793,6,10,45,0,0,29.773,151,0,0,54,61
2016-10-23 08:40:00,46.9,44.5768606904481,46.9,82,41.6969014691359,5,9,22.5,0,0,29.772,163,0,0.1,54.3,61
2016-10-23 08:45:00,47.2,47.2,47.2,82,41.9898896596783,3,8,45,0,0,29.769,175,0,0.5,54.3,61
2016-10-23 08:50:00,47.5,47.5,47.5,81,41.9643291631305,3,10,67.5,0,0,29.768,186,0,0.5,54.6,60
2016-10-23 08:55:00,47.8,45.6339636250733,47.8,80,41.9344219931272,5,11,45,0,0,29.769,196,0,0.5,54.8,60
2016-10-23 09:00:00,47.9,45.1665481604167,47.9,79,41.7056170769684,6,14,45,0,0,29.769,205,0.003,0.6,54.8,59
2016-10-23 09:05:00,48.2,46.7909580021595,48.2,82,42.9664832651629,4,8,315,0,0,29.769,214,0,0.6,55.1,60
2016-10-23 09:10:00,48.3,46.2212430331985,48.3,78,41.7640983882076,5,11,45,0,0,29.764,225,0,0.6,55.2,59
2016-10-23 09:15:00,48.6,46.5736106780736,48.6,78,42.0553313368986,5,12,22.5,0,0,29.76,234,0,0.7,55.4,58
2016-10-23 09:20:00,48.7,46.1192921344317,48.7,77,41.8176342051386,6,12,315,0,0,29.766,244,0,0.7,55.2,58
2016-10-23 09:25:00,49,47.0434342045737,49,76,41.7693360324811,5,12,22.5,0,0,29.759,255,0,0.8,55.4,58
2016-10-23 09:30:00,49.2,46.7147571181911,49.2,76,41.9628859366693,6,18,67.5,0,0,29.758,260,0,0.8,55.5,58
2016-10-23 09:35:00,49.5,48.2926677047116,49.5,75,41.9094124095681,4,9,22.5,0,0,29.757,267,0,0.8,55.7,58
2016-10-23 09:40:00,49.7,48.5236999666427,49.7,75,42.1026515433457,4,10,0,0,0,29.755,275,0,0.9,55.8,57
2016-10-23 09:45:00,49.8,46.9483432167348,49.8,73,41.4984587017894,7,13,22.5,0,0,29.757,285,0,0.9,55.7,56
2016-10-23 09:50:00,49.7,47.3102221019505,49.7,73,41.4021491051119,6,12,22.5,0,0,29.757,294,0,0.9,55.7,56
2016-10-23 09:55:00,49.9,47.5484080954542,49.9,73,41.5947674933681,6,13,22.5,0,0,29.758,300,0,1,55.8,56
2016-10-23 10:00:00,50.1,50.1,50.1,72,41.4301354308961,4,11,0,0,0,29.76,308,0.006,1,56,56
2016-10-23 10:05:00,50.4,50.4,50.4,72,41.7185805021235,5,11,22.5,0,0,29.754,316,0,1,56,56
2016-10-23 10:10:00,50.7,50.7,50.7,71,41.6444147837786,5,10,67.5,0,0,29.755,324,0,1.1,56.1,56
2016-10-23 10:15:00,50.9,50.9,50.9,71,41.8363838677851,5,13,22.5,0,0,29.752,330,0,1.1,56.3,56
2016-10-23 10:20:00,50.9,50.9,50.9,71,41.8363838677851,6,13,45,0,0,29.758,336,0,1.1,56.4,56
2016-10-23 10:25:00,50.9,50.9,50.9,71,41.8363838677851,4,11,67.5,0,0,29.759,345,0,1.2,56.4,56
2016-10-23 10:30:00,51.4,51.4,51.4,71,42.316291322794,2,6,67.5,0,0,29.759,306,0,1.1,56.5,56
2016-10-23 10:35:00,51.4,51.4,51.4,71,42.316291322794,4,10,45,0,0,29.756,143,0,0.8,56.7,56
2016-10-23 10:40:00,50.8,50.8,50.8,71,41.7403997616511,6,11,22.5,0,0,29.759,120,0,0.8,56.5,56
2016-10-23 10:45:00,50.4,50.4,50.4,72,41.7185805021235,4,11,22.5,0,0,29.761,146,0,0.9,56.7,56
2016-10-23 10:50:00,50.1,50.1,50.1,73,41.7873826612697,4,10,90,0,0,29.755,138,0,1,56.7,56
2016-10-23 10:55:00,50.5,50.5,50.5,73,42.1726033363315,4,12,0,0,0,29.754,382,0,1.3,57,55
2016-10-23 11:00:00,50.9,50.9,50.9,71,41.8363838677851,4,15,45,0,0,29.752,366,0.006,1.3,57.3,54
2016-10-23 11:05:00,51.5,51.5,51.5,71,42.4122701987466,3,9,22.5,0,0,29.749,363,0,1.4,57.4,54
2016-10-23 11:10:00,51.8,51.8,51.8,70,42.3312944206439,5,13,22.5,0,0,29.75,370,0,1.3,57.4,54
2016-10-23 11:15:00,51.5,51.5,51.5,69,41.6707550001441,6,12,0,0,0,29.754,137,0,1.1,57.6,54
2016-10-23 11:20:00,51,51,51,70,41.5647500247993,5,14,22.5,0,0,29.75,140,0,1,57.6,54
2016-10-23 11:25:00,51.2,51.2,51.2,71,42.1243309558751,5,9,0,0,0,29.746,424,0,1.4,57.9,54
2016-10-23 11:30:00,51.5,51.5,51.5,71,42.4122701987466,5,11,22.5,0,0,29.745,457,0,1.5,57.9,54
2016-10-23 11:35:00,52.2,52.2,52.2,70,42.7145448878327,4,12,22.5,0,0,29.739,407,0,1.5,57.9,54
2016-10-23 11:40:00,52.7,52.7,52.7,68,42.4386605918947,4,10,22.5,0,0,29.737,406,0,1.5,58.2,53
2016-10-23 11:45:00,52.8,52.8,52.8,67,42.1491395706125,5,12,337.5,0,0,29.736,403,0,1.5,58.2,53
2016-10-23 11:50:00,52.9,52.9,52.9,67,42.2444475678131,4,9,67.5,0,0,29.731,422,0,1.5,58.5,53
2016-10-23 11:55:00,52.7,52.7,52.7,66,41.663903876291,7,13,22.5,0,0,29.733,407,0,1.4,58.5,52
2016-10-23 12:00:00,52.4,52.4,52.4,67,41.7678974958208,6,12,0,0,0,29.727,376,0.008,1.4,58.4,52
2016-10-23 12:05:00,52.8,52.8,52.8,67,42.1491395706125,4,11,22.5,0,0,29.725,511,0,1.6,58.7,52
2016-10-23 12:10:00,53.1,53.1,53.1,67,42.4350605365293,5,10,0,0,0,29.724,265,0,1,59.3,51
2016-10-23 12:15:00,52.9,52.9,52.9,67,42.2444475678131,4,10,67.5,0,0,29.722,158,0,0.6,59.4,51
2016-10-23 12:20:00,52.6,52.6,52.6,67,41.9585205504466,3,11,67.5,0,0,29.721,109,0,0,59.4,51
2016-10-23 12:25:00,52.2,52.2,52.2,68,41.9612629388846,4,11,45,0,0,29.72,119,0,0.2,59.3,52
2016-10-23 12:30:00,51.9,51.9,51.9,69,42.0533632515374,3,9,67.5,0,0,29.721,139,0,0.5,59.1,52
2016-10-23 12:35:00,51.7,51.7,51.7,70,42.2354795403035,2,9,90,0,0,29.72,127,0,0.6,59,53
2016-10-23 12:40:00,51.5,51.5,51.5,71,42.4122701987466,4,11,67.5,0,0,29.719,169,0,0.8,58.8,53
2016-10-23 12:45:00,51.3,51.3,51.3,71,42.2203115751741,3,10,45,0,0,29.717,202,0,0.7,58.7,54
2016-10-23 12:50:00,51.3,51.3,51.3,72,42.583870450714,3,8,45,0,0,29.717,172,0,0.7,58.8,54
2016-10-23 12:55:00,51.4,51.4,51.4,72,42.6800095873605,3,8,45,0,0,29.717,136,0,0.3,58.7,54
2016-10-23 13:00:00,51.3,51.3,51.3,72,42.583870450714,3,8,45,0,0,29.715,119,0.004,0.2,58.8,54
2016-10-23 13:05:00,51.2,51.2,51.2,73,42.8467085244962,4,10,90,0,0,29.713,98,0,0.5,58.7,54
2016-10-23 13:10:00,51.1,51.1,51.1,73,42.7504101982829,5,10,0,0,0,29.716,131,0,0.6,58.5,55
2016-10-23 13:15:00,50.8,50.8,50.8,74,42.8155579100783,6,10,45,0,0,29.71,156,0,0.6,58.2,56
2016-10-23 13:20:00,50.8,50.8,50.8,75,43.1654139062998,2,8,67.5,0,0,29.709,154,0,0.6,58.4,56
2016-10-23 13:25:00,50.8,50.8,50.8,75,43.1654139062998,4,11,337.5,0,0,29.706,194,0,0.6,58.5,56
2016-10-23 13:30:00,50.7,50.7,50.7,75,43.0688028432617,6,11,22.5,0,0,29.706,129,0,0.2,58.4,56
2016-10-23 13:35:00,50.5,50.5,50.5,75,42.8755784989151,6,13,22.5,0,0,29.703,99,0,0,58.2,56
2016-10-23 13:40:00,50.5,50.5,50.5,75,42.8755784989151,3,8,45,0,0,29.701,103,0,0.2,58.2,57
2016-10-23 13:45:00,50.4,50.4,50.4,76,43.1241259624752,6,11,45,0,0,29.701,115,0,0.5,57.9,57
2016-10-23 13:50:00,50.4,50.4,50.4,76,43.1241259624752,2,7,67.5,0,0,29.701,120,0,0.2,57.9,57
2016-10-23 13:55:00,50.5,50.5,50.5,76,43.2208913685014,3,8,0,0,0,29.7,124,0,0.1,57.7,58
2016-10-23 14:00:00,50.6,50.6,50.6,77,43.6591388034377,2,7,67.5,0,0,29.7,215,0.003,0.2,58.1,57
2016-10-23 14:05:00,50.9,50.9,50.9,77,43.9498804129366,3,8,22.5,0,0,29.7,147,0,0,58.2,58
2016-10-23 14:10:00,51,51,51,76,43.7047077928892,4,14,45,0,0,29.696,134,0,0,58.2,57
2016-10-23 14:15:00,51,51,51,76,43.7047077928892,5,12,22.5,0,0,29.694,104,0,0.1,58.2,57
2016-10-23 14:20:00,51,51,51,76,43.7047077928892,2,8,67.5,0,0,29.692,160,0,0.3,58.4,57
2016-10-23 14:25:00,51.5,51.5,51.5,76,44.1885065417486,5,10,0,0,0,29.691,337,0,0.6,58.5,57
2016-10-23 14:30:00,52,52,52,76,44.6722876160484,5,9,45,0,0,29.689,349,0,0.5,58.5,57
2016-10-23 14:35:00,52.3,52.3,52.3,73,43.9059369878704,6,11,67.5,0,0,29.689,247,0,0,59,55
2016-10-23 14:40:00,52.4,52.4,52.4,72,43.6413548571226,4,9,45,0,0,29.687,97,0,0,59.3,54
2016-10-23 14:45:00,52.3,52.3,52.3,72,43.5452241015304,3,8,45,0,0,29.692,82,0,0,59.3,54
2016-10-23 14:50:00,52.2,52.2,52.2,72,43.4490925078821,4,12,22.5,0,0,29.694,85,0,0,59,55
2016-10-23 14:55:00,51.9,51.9,51.9,73,43.5207742697455,3,10,337.5,0,0,29.691,84,0,0,58.5,56
2016-10-23 15:00:00,51.7,51.7,51.7,73,43.3281880814026,2,7,22.5,0,0,29.694,85,0.004,0,58.2,57
2016-10-23 15:05:00,51.5,51.5,51.5,74,43.4907364412976,2,8,45,0,0,29.692,65,0,0,58.1,57
2016-10-23 15:10:00,51.3,51.3,51.3,75,43.6484581304785,3,9,45,0,0,29.693,92,0,0,57.7,58
2016-10-23 15:15:00,51.2,51.2,51.2,76,43.8982294134421,2,6,22.5,0,0,29.693,100,0,0,57.9,58
2016-10-23 15:20:00,51.1,51.1,51.1,76,43.8014689566724,4,9,45,0,0,29.692,140,0,0,57.9,58
2016-10-23 15:25:00,51.1,51.1,51.1,76,43.8014689566724,4,11,45,0,0,29.693,62,0,0,57.7,59
2016-10-23 15:30:00,51,51,51,77,44.0467929329114,3,9,45,0,0,29.691,30,0,0,57.7,59
2016-10-23 15:35:00,50.9,50.9,50.9,77,43.9498804129366,2,7,45,0,0,29.691,52,0,0,57.7,59
2016-10-23 15:40:00,50.7,50.7,50.7,77,43.7560533482068,4,11,22.5,0,0,29.691,46,0,0,57.6,59
2016-10-23 15:45:00,50.6,50.6,50.6,77,43.6591388034377,2,8,45,0,0,29.693,38,0,0,57.7,58
2016-10-23 15:50:00,50.6,50.6,50.6,77,43.6591388034377,2,9,90,0,0,29.691,33,0,0,57.9,58
2016-10-23 15:55:00,50.6,50.6,50.6,77,43.6591388034377,3,9,90,0,0,29.689,45,0,0,58.1,58
2016-10-23 16:00:00,50.6,50.6,50.6,77,43.6591388034377,2,14,90,0,0,29.692,32,0.002,0,58.2,57
2016-10-23 16:05:00,50.6,50.6,50.6,76,43.3176560674678,3,8,90,0,0,29.695,20,0,0,58.2,57
2016-10-23 16:10:00,50.5,50.5,50.5,76,43.2208913685014,3,10,67.5,0,0,29.697,16,0,0,57.9,58
2016-10-23 16:15:00,50.3,50.3,50.3,76,43.0273598493814,2,7,67.5,0,0,29.693,15,0,0,57.7,58
2016-10-23 16:20:00,50.2,50.2,50.2,77,43.2714738748358,1,5,90,0,0,29.691,14,0,0,57.4,59
2016-10-23 16:25:00,50.1,50.1,50.1,77,43.1745559552686,1,4,337.5,0,0,29.697,15,0,0,57,59
2016-10-23 16:30:00,49.9,49.9,49.9,78,43.3172738873774,2,7,45,0,0,29.692,14,0,0,56.8,60
2016-10-23 16:35:00,49.7,49.7,49.7,78,43.1231359545942,3,10,0,0,0,29.692,12,0,0,56.8,60
2016-10-23 16:40:00,49.5,49.5,49.5,78,42.9289954491667,3,9,22.5,0,0,29.692,11,0,0,56.8,60
2016-10-23 16:45:00,49.3,49.3,49.3,78,42.7348523710438,2,8,22.5,0,0,29.696,6,0,0,56.7,60
2016-10-23 16:50:00,49.2,49.2,49.2,79,42.9695256656874,3,9,67.5,0,0,29.699,0,0,0,56.7,60
2016-10-23 16:55:00,49.2,49.2,49.2,79,42.9695256656874,2,6,45,0,0,29.702,0,0,0,56.7,60
2016-10-23 17:00:00,49.2,49.2,49.2,79,42.9695256656874,2,7,45,0,0,29.702,0,0.001,0,56.5,60
2016-10-23 17:05:00,49.2,49.2,49.2,79,42.9695256656874,2,6,67.5,0,0,29.703,0,0,0,56.5,60
2016-10-23 17:10:00,49.2,49.2,49.2,80,43.2975913519625,1,5,67.5,0,0,29.705,0,0,0,56.3,61
2016-10-23 17:15:00,49.2,49.2,49.2,80,43.2975913519625,1,6,45,0,0,29.701,0,0,0,56.5,61
2016-10-23 17:20:00,49.2,49.2,49.2,80,43.2975913519625,2,6,22.5,0,0,29.703,0,0,0,56.7,61
2016-10-23 17:25:00,49.2,49.2,49.2,80,43.2975913519625,3,9,22.5,0,0,29.704,0,0,0,56.7,60
2016-10-23 17:30:00,49.1,49.1,49.1,80,43.2002258839318,2,7,45,0,0,29.705,0,0,0,56.8,60
2016-10-23 17:35:00,49,49,49,80,43.1028598356317,2,7,45,0,0,29.705,0,0,0,56.7,61
2016-10-23 17:40:00,49,47.0434342045737,49,81,43.4270440408793,5,11,45,0,0,29.705,0,0,0,56.7,61
2016-10-23 17:45:00,48.9,47.5995709189183,48.9,81,43.329533560167,4,9,22.5,0,0,29.705,0,0,0,56.7,61
2016-10-23 17:50:00,48.8,47.4840547879528,48.8,81,43.2320225302646,4,9,45,0,0,29.703,0,0,0,56.5,62
2016-10-23 17:55:00,48.6,48.6,48.6,82,43.3571061926722,3,7,22.5,0,0,29.706,0,0,0,56.4,62
2016-10-23 18:00:00,48.5,48.5,48.5,82,43.2594512383405,3,9,45,0,0,29.703,0,0.001,0,56.4,63
2016-10-23 18:05:00,48.3,48.3,48.3,82,43.0641397745899,2,14,45,0,0,29.704,0,0,0,56.1,63
2016-10-23 18:10:00,48.3,46.9064741331251,48.3,83,43.3804032890966,4,12,45,0,0,29.703,0,0,0,56.1,63
2016-10-23 18:15:00,48.2,46.1037871515735,48.2,83,43.2826060133077,5,11,45,0,0,29.704,0,0,0,56.1,63
2016-10-23 18:20:00,48.2,45.5238271506724,48.2,84,43.595390396753,6,14,45,0,0,29.703,0,0,0,56.1,64
2016-10-23 18:25:00,48.2,46.7909580021595,48.2,84,43.595390396753,4,9,45,0,0,29.704,0,0,0,56.1,64
2016-10-23 18:30:00,48.2,46.7909580021595,48.2,85,43.9049111012983,4,10,22.5,0,0,29.707,0,0,0,56.3,64
2016-10-23 18:35:00,48.1,45.9863312699484,48.1,85,43.8068359956199,5,10,45,0,0,29.705,0,0,0,56.1,64
2016-10-23 18:40:00,48.1,46.675441871194,48.1,85,43.8068359956199,4,12,22.5,0,0,29.706,0,0,0,56.1,65
2016-10-23 18:45:00,48,45.8688753883234,48,85,43.708760462694,5,12,45,0,0,29.708,0,0,0,56.1,65
2016-10-23 18:50:00,47.9,47.9,47.9,86,43.9166037786215,2,6,22.5,0,0,29.709,0,0,0,56.1,65
2016-10-23 18:55:00,47.9,45.7514195066984,47.9,86,43.9166037786215,5,11,45,0,0,29.71,0,0,0,56,65
2016-10-23 19:00:00,47.9,46.4444096092629,47.9,86,43.9166037786215,4,10,45,0,0,29.712,0,0.001,0,56.1,65
2016-10-23 19:05:00,47.9,46.4444096092629,47.9,86,43.9166037786215,4,9,67.5,0,0,29.71,0,0,0,56.1,65
2016-10-23 19:10:00,47.8,47.8,47.8,86,43.8183908153124,3,12,315,0,0,29.71,0,0,0,56.1,64
2016-10-23 19:15:00,47.8,47.8,47.8,86,43.8183908153124,3,8,67.5,0,0,29.714,0,0,0,56.1,64
2016-10-23 19:20:00,47.7,47.7,47.7,86,43.7201774546675,3,10,67.5,0,0,29.715,0,0,0,56.1,64
2016-10-23 19:25:00,47.7,47.7,47.7,86,43.7201774546675,2,6,337.5,0,0,29.715,0,0,0,56.1,64
2016-10-23 19:30:00,47.7,47.7,47.7,86,43.7201774546675,2,7,67.5,0,0,29.718,0,0,0,55.8,65
2016-10-23 19:35:00,47.6,47.6,47.6,86,43.6219636966843,3,7,0,0,0,29.717,0,0,0,55.8,64
2016-10-23 19:40:00,47.6,46.0978612163663,47.6,86,43.6219636966843,4,10,22.5,0,0,29.718,0,0,0,55.8,64
2016-10-23 19:45:00,47.5,45.9823450854007,47.5,86,43.5237495413604,4,9,22.5,0,0,29.716,0,0,0,55.8,64
2016-10-23 19:50:00,47.4,47.4,47.4,86,43.4255349886934,3,9,22.5,0,0,29.715,0,0,0,55.8,64
2016-10-23 19:55:00,47.4,45.1641400985732,47.4,86,43.4255349886934,5,9,0,0,0,29.715,0,0,0,55.8,64
2016-10-23 20:00:00,47.2,45.6357966925041,47.2,86,43.2291046913205,4,9,22.5,0,0,29.714,0,0.001,0,55.8,63
2016-10-23 20:05:00,47.2,47.2,47.2,85,42.924140818042,3,10,45,0,0,29.714,0,0,0,55.8,63
2016-10-23 20:10:00,47.1,44.8117724536982,47.1,85,42.826061439763,5,11,45,0,0,29.711,0,0,0,55.7,63
2016-10-23 20:15:00,47,44.6943165720731,47,85,42.7279816342086,5,10,45,0,0,29.711,0,0,0,55.5,63
2016-10-23 20:20:00,46.9,46.9,46.9,85,42.6299014013761,3,8,22.5,0,0,29.711,0,0,0,55.4,64
2016-10-23 20:25:00,46.8,44.4594048088231,46.8,85,42.5318207412625,5,11,0,0,0,29.716,0,0,0,55.2,63
2016-10-23 20:30:00,46.7,46.7,46.7,85,42.4337396538652,2,7,45,0,0,29.715,0,0,0,55.4,63
2016-10-23 20:35:00,46.5,46.5,46.5,85,42.2375761972079,2,9,67.5,0,0,29.717,0,0,0,55.2,63
2016-10-23 20:40:00,46.4,46.4,46.4,85,42.1394938279424,3,7,45,0,0,29.716,0,0,0,54.9,63
2016-10-23 20:45:00,46.2,46.2,46.2,85,41.9433278075238,2,7,45,0,0,29.717,0,0,0,54.9,63
2016-10-23 20:50:00,46.1,46.1,46.1,85,41.8452441563651,1,8,45,0,0,29.724,0,0,0,54.8,63
2016-10-23 20:55:00,46,46,46,85,41.7471600779031,3,8,0,0,0,29.724,0,0,0,54.5,63
2016-10-23 21:00:00,45.9,45.9,45.9,85,41.6490755721349,1,7,0,0,0,29.722,0,0.001,0,54.8,63
2016-10-23 21:05:00,45.7,45.7,45.7,85,41.452905278669,1,7,22.5,0,0,29.72,0,0,0,54.5,63
2016-10-23 21:10:00,45.5,45.5,45.5,85,41.2567332759451,2,5,90,0,0,29.727,0,0,0,54.2,63
2016-10-23 21:15:00,45.4,45.4,45.4,85,41.1586466336045,2,7,22.5,0,0,29.729,0,0,0,54,63
2016-10-23 21:20:00,45.2,45.2,45.2,85,40.9624720669517,2,7,22.5,0,0,29.733,0,0,0,53.9,64